Home   Weather   Victoria   Past weeks

Flag for USA Past Weather in Victoria, Texas, USA — Yesterday and Last 2 Weeks

Now
69 °F

Mostly cloudy.


Feels Like: 69 °F
Forecast: 68 / 75 °F
Wind: 3 mph from South

Location: Victoria Regional Airport

Current Time: Jan 16, 2017 at 7:01:03 am

Latest Report: Jan 16, 2017 at 5:59 am


Visibility: 7 mi

Pressure: 29.93 "Hg

Humidity: 93%

Dew Point: 67 °F

Location of VictoriaLocation

Past Weather in Victoria — Graph

°F

Victoria Temperature Yesterday

Maximum temperature yesterday: 80 °F (at 1:51 pm)
Minimum temperature yesterday: 66 °F (at 12:51 am)
Average temperature yesterday: 71 °F

High & Low Weather Summary for the Past Weeks

 TemperatureHumidityPressure
High82 °F (Jan 13, 12:51 pm)100% (Jan 1, 5:51 am)30.78 "Hg (Jan 1, 5:51 am)
Low21 °F (Jan 7, 6:51 am)18% (Jan 3, 2:51 pm)29.75 "Hg (Jan 2, 5:51 am)
Average61 °F75%30.13 "Hg
* Reported Jan 1 5:08 am — Jan 16 5:59 am, Victoria, Weather by CustomWeather, © 2017

Note: Actual official high and low records may vary slightly from our data, if they occured in-between our weather recording intervals... More about our weather records

Advertising

Victoria Weather History for the Previous 24 Hours

Scroll right to see more
 ConditionsComfort  
Time TempWeatherWind HumidityBarometerVisibility
5:59 am
Mon, Jan 16
69 °FMostly cloudy.3 mph93%29.93 "Hg7 mi
5:16 am69 °FMostly cloudy.6 mph93%29.92 "Hg7 mi
4:56 am70 °FMostly cloudy.5 mph93%29.92 "Hg8 mi
4:39 am71 °FMostly cloudy.5 mph90%29.93 "Hg9 mi
4:02 am71 °FLight rain. Mostly cloudy.10 mph90%29.92 "Hg8 mi
3:21 am71 °FLight rain. Passing clouds.12 mph90%29.92 "Hg7 mi
2:35 am72 °FOvercast.13 mph84%29.91 "Hg9 mi
1:51 am71 °FMostly cloudy.14 mph87%29.89 "Hg9 mi
12:51 am71 °FOvercast.21 mph87%29.89 "Hg9 mi
12:23 am71 °FMostly cloudy.20 mph87%29.90 "Hg9 mi
11:39 pm
Sun, Jan 15
71 °FMostly cloudy.20 mph87%29.91 "Hg9 mi
10:51 pm71 °FMostly cloudy.17 mph87%29.90 "Hg9 mi
10:15 pm71 °FMostly cloudy.18 mph87%29.92 "Hg9 mi
9:51 pm71 °FMostly cloudy.20 mph87%29.91 "Hg9 mi
9:11 pm71 °FMostly cloudy.21 mph87%29.90 "Hg10 mi
8:51 pm71 °FMostly cloudy.18 mph87%29.90 "Hg10 mi
7:51 pm72 °FMostly cloudy.21 mph81%29.91 "Hg10 mi
7:22 pm72 °FOvercast.23 mph81%29.91 "Hg10 mi
5:51 pm73 °FMostly cloudy.22 mph79%29.88 "Hg10 mi
4:51 pm75 °FMostly cloudy.29 mph71%29.88 "Hg10 mi
4:19 pm75 °FMostly cloudy.25 mph74%29.90 "Hg10 mi
3:07 pm77 °FCloudy.28 mph64%29.92 "Hg10 mi
1:51 pm80 °FPartly sunny.28 mph58%29.95 "Hg10 mi
12:51 pm78 °FMostly cloudy.25 mph66%29.99 "Hg10 mi
12:21 pm77 °FCloudy.28 mph69%30.02 "Hg10 mi
12:01 pm78 °FCloudy.28 mph64%30.04 "Hg10 mi
10:59 am77 °FPartly sunny.24 mph71%30.09 "Hg10 mi
10:13 am74 °FMore clouds than sun.17 mph85%30.11 "Hg9 mi
9:51 am71 °FLow clouds.9 mph90%30.12 "Hg8 mi
8:51 am68 °FMostly cloudy.9 mph93%30.10 "Hg8 mi
8:18 am67 °FMostly cloudy.5 mph93%30.11 "Hg7 mi
7:59 am66 °FCloudy.5 mph93%30.11 "Hg7 mi
7:18 am66 °FFog.5 mph93%30.11 "Hg5 mi
Weather by CustomWeather, © 2017

See weather overviewHow to use our weather pages